OneWeb SL0083

operational
NORAD ID: 45435 Int'l Des: 2020-020 Owner: ONEWEB Country: UK Constellation: oneweb
LEOCIRCULARPOLARONEWEB_TYPE

About OneWeb SL0083

Description loading...

Live Position

Loading 3D Globe...

Upcoming Passes

Altitude History

Altitude vs Time

uPlot chart will show altitude changes over time

Two-Line Element Set

1 45435U 20020M 25304.77605553 .00000146 00000-0 37535-3 0 9994
2 45435 87.8851 66.5356 0001716 100.2547 259.8775 13.11419383272733
Epoch: Oct 31, 2025 • Age: 20 hours

Current Status

Altitude 1231.4 km
Velocity 7.24 km/s
Sub-Earth Point -34.10°S, 164.89°E
Launch Date Mar 21, 2020
Age 5.6 years
Type internet

Technical Details

Classification Payload
Mass 148.00 kg
Dry Mass 140.00 kg
Total Mass 148.00 kg
Length 1.30 m
Diameter 1.00 m
Span 5.00 m
Shape Trapezoid+2 pan
Manufacturer ONEWUS
Bus Type ARROW
Phase Status In Orbit
Owner/State ONEWEB/UK

Large Constellations

Loading constellations...